"startDT [UTC]","vpos","CH4 [ppm]","stdev(CH4) [ppm]","CO2 [ppm]","stdev(CO2) [ppm]","H2O [ppm]","stdev(H2O)","p_LGR [torr]","T_LGR [C]","mt1_LGR [us]","mt2_LGR [us]","T_ECpre [C]","T_EC1 [C]","T_EC2 [C]","p_inlet [hPa]","p_in [hPa]","p_out [hPa]","T_inlet [C]","RH_inlet [%]","dwpt_inlet [C]","T_vent [C]","RH_vent [%]","dwpt_vent [C]","flow_vent [l min-1]","flow_inlet [l min-1]","dwpt_sample [C]","T_room [C]"
2012-08-01 00:00:00,0.0,1.9018,0.0013,385.38,0.36,6.9,13.7,138.08,30.87,24.64,36.39,0.91,-26.88,3.16,-42,570,-923,23.6,32.8,6.3,23.9,1.7,-30.0,5.73,2.37,-28.5,29.3
2012-08-01 00:01:00,0.0,1.9010,0.0012,385.33,0.32,7.0,14.4,138.08,30.87,24.65,36.39,0.94,-26.87,3.34,-42,570,-923,23.6,32.9,6.3,23.8,1.7,-30.0,5.73,2.37,-28.5,29.2
2012-08-01 00:02:00,0.0,1.9021,0.0012,385.39,0.37,8.9,16.4,138.07,30.87,24.65,36.39,0.95,-26.85,3.68,-42,570,-923,23.6,32.9,6.4,23.8,1.7,-30.1,5.73,2.40,-28.5,29.3
2012-08-01 00:03:00,0.0,1.9039,0.0010,385.00,0.35,5.8,10.5,138.07,30.87,24.65,36.39,0.92,-26.85,4.17,-42,570,-923,23.6,33.2,6.4,23.8,1.7,-30.1,5.73,2.37,-28.5,29.3
2012-08-01 00:04:00,0.0,1.9036,0.0013,385.06,0.40,9.4,15.5,138.07,30.88,24.64,36.39,0.88,-26.83,4.76,-42,570,-923,23.6,33.3,6.5,23.8,1.7,-30.1,5.73,2.38,-28.6,29.2
2012-08-01 00:05:00,0.0,1.9027,0.0015,385.19,0.43,7.2,15.9,138.07,30.89,24.64,36.40,0.86,-26.82,5.31,-42,570,-923,23.6,33.2,6.5,23.8,1.7,-30.1,5.73,2.40,-28.6,29.2
2012-08-01 00:06:00,0.0,1.9019,0.0010,385.17,0.43,5.1,12.2,138.07,30.89,24.65,36.39,0.88,-26.82,5.83,-42,570,-923,23.6,33.2,6.5,23.8,1.7,-30.1,5.73,2.36,-28.6,29.2
2012-08-01 00:07:00,0.0,1.9019,0.0010,385.37,0.43,7.2,14.8,138.07,30.90,24.65,36.38,0.89,-26.81,6.33,-42,570,-923,23.6,33.3,6.5,23.8,1.7,-30.1,5.73,2.38,-28.5,29.2
2012-08-01 00:08:00,0.0,1.9036,0.0010,384.79,0.37,7.1,14.6,138.07,30.90,24.65,36.40,0.92,-26.80,6.80,-42,570,-923,23.6,33.5,6.6,23.8,1.7,-30.0,5.73,2.39,-28.5,29.2
2012-08-01 00:09:00,0.0,1.9044,0.0009,384.89,0.40,7.8,16.8,138.07,30.90,24.65,36.39,0.93,-26.79,7.26,-42,570,-923,23.6,33.6,6.6,23.8,1.7,-30.0,5.73,2.36,-28.6,29.2
2012-08-01 00:10:00,0.0,1.9046,0.0013,384.62,0.40,9.2,16.8,138.07,30.90,24.65,36.39,0.95,-26.79,7.70,-42,570,-923,23.6,33.7,6.7,23.8,1.7,-30.2,5.73,2.38,-28.5,29.2
2012-08-01 00:11:00,0.0,1.9048,0.0010,384.79,0.38,7.2,16.3,138.07,30.90,24.65,36.39,0.94,-26.77,8.12,-42,569,-923,23.6,33.8,6.7,23.8,1.7,-30.1,5.73,2.39,-28.5,29.2
2012-08-01 00:12:00,0.0,1.9055,0.0010,384.75,0.48,4.6,12.3,138.07,30.90,24.65,36.38,0.90,-26.76,8.53,-42,570,-923,23.5,34.0,6.7,23.8,1.7,-30.1,5.73,2.35,-28.5,29.3
2012-08-01 00:13:00,0.0,1.9041,0.0009,384.89,0.41,10.5,19.1,138.07,30.90,24.64,36.39,0.86,-26.76,8.91,-42,570,-923,23.5,33.8,6.7,23.8,1.7,-30.1,5.73,2.39,-28.5,29.3
2012-08-01 00:14:00,0.0,1.9033,0.0011,385.08,0.43,5.9,13.3,138.07,30.91,24.65,36.40,0.86,-26.75,9.29,-42,569,-923,23.5,33.7,6.6,23.8,1.7,-30.1,5.73,2.37,-28.5,29.3
2012-08-01 00:15:00,0.0,1.9031,0.0010,385.14,0.36,4.8,11.8,138.07,30.91,24.65,36.39,0.89,-26.75,9.66,-42,570,-922,23.5,33.7,6.6,23.8,1.7,-30.1,5.73,2.35,-28.5,29.3
2012-08-01 00:16:00,0.0,1.9032,0.0011,385.25,0.40,7.2,18.4,138.07,30.92,24.64,36.39,0.90,-26.74,10.01,-42,569,-922,23.5,33.6,6.6,23.7,1.7,-30.1,5.73,2.39,-28.5,29.2
2012-08-01 00:17:00,0.0,1.9037,0.0013,385.10,0.39,7.1,16.5,138.07,30.92,24.64,36.39,0.91,-26.73,10.36,-42,569,-923,23.5,33.7,6.6,23.8,1.7,-30.1,5.73,2.35,-28.5,29.2
2012-08-01 00:18:00,0.0,1.9048,0.0011,384.84,0.45,7.4,17.6,138.07,30.92,24.65,36.39,0.93,-26.72,10.70,-42,569,-922,23.5,33.9,6.7,23.8,1.7,-29.9,5.73,2.37,-28.6,29.3
2012-08-01 00:19:00,0.0,1.9054,0.0014,384.71,0.40,5.7,14.0,138.07,30.92,24.65,36.40,0.94,-26.72,11.04,-42,569,-922,23.5,34.1,6.8,23.8,1.7,-30.0,5.73,2.39,-28.5,29.3
2012-08-01 00:20:00,0.0,1.9073,0.0010,384.43,0.39,5.1,15.0,138.07,30.93,24.64,36.39,0.95,-26.72,11.34,-42,569,-922,23.5,34.4,6.9,23.7,1.7,-30.1,5.73,2.35,-28.6,29.3
2012-08-01 00:21:00,0.0,1.9055,0.0011,384.62,0.41,4.5,10.9,138.07,30.93,24.65,36.39,0.92,-26.72,11.65,-42,569,-923,23.5,34.5,7.0,23.7,1.7,-30.1,5.73,2.39,-28.5,29.3
2012-08-01 00:22:00,0.0,1.9037,0.0012,385.16,0.39,8.9,17.0,138.07,30.93,24.65,36.38,0.90,-26.71,11.94,-42,569,-922,23.5,34.2,6.8,23.7,1.7,-30.1,5.73,2.36,-28.6,29.3
2012-08-01 00:23:00,0.0,1.9037,0.0009,385.14,0.45,9.8,19.5,138.07,30.94,24.64,36.39,0.87,-26.71,12.23,-42,569,-922,23.5,34.1,6.8,23.7,1.7,-30.1,5.73,2.36,-28.5,29.3
2012-08-01 00:24:00,0.0,1.9047,0.0011,384.83,0.44,3.9,9.9,138.07,30.94,24.65,36.39,0.89,-26.70,12.50,-42,569,-922,23.5,34.3,6.9,23.7,1.7,-30.1,5.73,2.39,-28.5,29.3
2012-08-01 00:25:00,0.0,1.9058,0.0011,384.68,0.40,8.1,14.3,138.07,30.94,24.65,36.39,0.88,-26.70,12.78,-42,569,-923,23.5,34.5,6.9,23.7,1.7,-30.1,5.73,2.35,-28.5,29.2
2012-08-01 00:26:00,0.0,1.9054,0.0010,384.76,0.40,7.6,16.8,138.07,30.94,24.64,36.39,0.91,-26.70,13.03,-42,569,-922,23.5,34.5,6.9,23.7,1.7,-30.1,5.73,2.38,-28.5,29.3
2012-08-01 00:27:00,0.0,1.9047,0.0012,384.84,0.41,5.2,14.1,138.07,30.94,24.64,36.38,0.90,-26.69,13.28,-42,569,-922,23.5,34.5,6.9,23.7,1.7,-30.1,5.73,2.37,-28.5,29.3
2012-08-01 00:28:00,0.0,1.9023,0.0009,385.07,0.41,8.4,15.1,138.07,30.94,24.65,36.40,0.92,-26.69,13.51,-42,569,-922,23.5,34.1,6.8,23.7,1.7,-30.1,5.73,2.35,-28.5,29.3
2012-08-01 00:29:00,0.0,1.9044,0.0013,384.69,0.45,6.0,14.2,138.07,30.95,24.65,36.39,0.93,-26.68,13.73,-42,569,-922,23.5,34.3,6.9,23.7,1.7,-30.2,5.73,2.39,-28.5,29.3
2012-08-01 00:30:00,0.0,1.9056,0.0012,384.62,0.39,7.6,14.2,138.07,30.95,24.64,36.39,0.94,-26.68,13.95,-42,569,-922,23.5,34.5,7.0,23.7,1.7,-30.1,5.73,2.35,-28.5,29.3
2012-08-01 00:31:00,0.0,1.9056,0.0013,384.64,0.35,10.9,16.7,138.07,30.95,24.64,36.39,0.94,-26.67,14.16,-42,569,-922,23.5,34.4,6.9,23.7,1.7,-30.1,5.73,2.38,-28.5,29.3
2012-08-01 00:32:00,0.0,1.9056,0.0011,384.77,0.40,5.7,13.5,138.07,30.96,24.64,36.39,0.93,-26.67,14.35,-42,569,-922,23.5,34.4,6.9,23.7,1.7,-30.1,5.73,2.37,-28.5,29.3
2012-08-01 00:33:00,0.0,1.9066,0.0020,384.61,0.49,9.5,16.6,138.07,30.96,24.65,36.39,0.91,-26.66,14.55,-42,569,-922,23.5,34.4,6.9,23.8,1.7,-30.1,5.73,2.35,-28.5,29.3
2012-08-01 00:34:00,0.0,1.9076,0.0019,384.49,0.49,2.7,10.9,138.07,30.96,24.64,36.39,0.90,-26.66,14.73,-42,569,-923,23.5,34.6,7.0,23.8,1.7,-30.1,5.73,2.39,-28.5,29.4
2012-08-01 00:35:00,0.0,1.9037,0.0010,384.84,0.41,6.9,14.9,138.07,30.97,24.65,36.39,0.88,-26.65,14.90,-41,569,-922,23.5,34.4,6.9,23.8,1.7,-30.2,5.73,2.34,-28.5,29.3
2012-08-01 00:36:00,0.0,1.9046,0.0009,384.66,0.45,9.8,17.8,138.06,30.97,24.65,36.39,0.88,-26.65,15.07,-41,569,-922,23.5,34.4,6.9,23.7,1.7,-30.2,5.73,2.38,-28.5,29.3
2012-08-01 00:37:00,0.0,1.9055,0.0010,384.32,0.48,6.0,16.9,138.07,30.97,24.65,36.39,0.89,-26.64,15.23,-42,569,-922,23.5,34.5,7.0,23.7,1.7,-30.3,5.73,2.36,-28.5,29.3
2012-08-01 00:38:00,0.0,1.9058,0.0010,384.49,0.34,8.3,15.3,138.07,30.98,24.65,36.39,0.91,-26.64,15.38,-41,569,-922,23.5,34.5,7.0,23.7,1.7,-30.3,5.73,2.35,-28.5,29.2
2012-08-01 00:39:00,0.0,1.9068,0.0011,384.18,0.38,5.6,12.9,138.07,30.98,24.64,36.39,0.92,-26.63,15.53,-42,569,-922,23.5,34.6,7.0,23.7,1.7,-30.3,5.73,2.39,-28.5,29.3
2012-08-01 00:40:00,0.0,1.9071,0.0016,384.21,0.38,7.8,16.3,138.07,30.98,24.65,36.39,0.92,-26.63,15.67,-42,569,-922,23.5,34.7,7.0,23.7,1.7,-30.3,5.73,2.35,-28.5,29.3
2012-08-01 00:41:00,0.0,1.9085,0.0011,383.97,0.44,10.1,17.9,138.07,30.98,24.65,36.39,0.94,-26.63,15.81,-42,569,-922,23.5,34.9,7.1,23.7,1.7,-30.3,5.73,2.37,-28.5,29.3
2012-08-01 00:42:00,0.0,1.9055,0.0012,384.56,0.52,6.5,12.9,138.07,30.98,24.64,36.39,0.94,-26.62,15.94,-42,569,-922,23.5,34.3,6.9,23.8,1.7,-30.3,5.73,2.37,-28.5,29.3
2012-08-01 00:43:00,0.0,1.9055,0.0012,384.57,0.38,8.1,16.6,138.07,30.99,24.64,36.39,0.94,-26.61,16.06,-42,569,-922,23.5,34.3,6.9,23.7,1.7,-30.3,5.73,2.35,-28.5,29.3
2012-08-01 00:44:00,0.0,1.9054,0.0011,384.62,0.45,6.2,14.8,138.07,30.99,24.64,36.39,0.93,-26.62,16.18,-41,569,-922,23.5,34.2,6.8,23.8,1.7,-30.2,5.73,2.38,-28.5,29.3
2012-08-01 00:45:00,0.0,1.9060,0.0010,384.49,0.48,5.8,12.8,138.07,30.99,24.65,36.39,0.91,-26.60,16.30,-42,569,-922,23.5,34.4,6.9,23.7,1.7,-30.3,5.73,2.34,-28.5,29.3
2012-08-01 00:46:00,0.0,1.9070,0.0010,384.05,0.44,5.2,12.9,138.07,30.99,24.65,36.39,0.91,-26.60,16.40,-42,569,-922,23.5,34.6,7.0,23.7,1.7,-30.3,5.73,2.38,-28.5,29.3
2012-08-01 00:47:00,0.0,1.9067,0.0010,384.49,0.41,10.4,17.7,138.07,30.99,24.65,36.38,0.88,-26.60,16.50,-42,569,-922,23.5,34.4,6.9,23.7,1.7,-30.2,5.73,2.36,-28.5,29.3
2012-08-01 00:48:00,0.0,1.9071,0.0009,384.20,0.38,9.9,17.4,138.07,31.00,24.65,36.39,0.91,-26.60,16.60,-42,569,-922,23.5,34.6,7.0,23.7,1.7,-30.3,5.73,2.36,-28.5,29.4
2012-08-01 00:49:00,0.0,1.9082,0.0011,384.21,0.43,9.4,16.9,138.07,31.00,24.64,36.38,0.89,-26.59,16.70,-42,569,-922,23.5,34.7,7.0,23.8,1.7,-30.2,5.73,2.38,-28.5,29.4
2012-08-01 00:50:00,0.0,1.9075,0.0010,384.21,0.44,8.3,15.6,138.07,31.00,24.65,36.39,0.90,-26.59,16.79,-42,569,-922,23.5,34.6,7.0,23.7,1.7,-30.3,5.73,2.34,-28.5,29.3
2012-08-01 00:51:00,0.0,1.9080,0.0011,384.36,0.41,9.5,16.4,138.07,31.01,24.65,36.39,0.92,-26.59,16.87,-42,569,-922,23.5,34.5,7.0,23.7,1.7,-30.3,5.73,2.38,-28.5,29.3
2012-08-01 00:52:00,0.0,1.9085,0.0011,384.21,0.41,7.3,15.7,138.07,31.01,24.65,36.39,0.92,-26.59,16.96,-42,569,-922,23.5,34.6,7.0,23.7,1.7,-30.3,5.73,2.35,-28.5,29.3
2012-08-01 00:53:00,0.0,1.9091,0.0011,384.32,0.47,11.0,20.8,138.07,31.01,24.64,36.39,0.93,-26.59,17.03,-42,569,-922,23.5,34.7,7.0,23.7,1.7,-30.3,5.73,2.36,-28.5,29.3
2012-08-01 00:54:00,0.0,1.9084,0.0011,384.29,0.38,11.2,19.4,138.07,31.02,24.65,36.39,0.94,-26.59,17.11,-42,569,-922,23.5,34.7,7.0,23.7,1.7,-30.3,5.73,2.37,-28.5,29.3
2012-08-01 00:55:00,0.0,1.9086,0.0009,384.33,0.44,11.1,20.9,138.07,31.02,24.65,36.39,0.94,-26.59,17.18,-42,569,-921,23.5,34.7,7.0,23.8,1.7,-30.3,5.73,2.34,-28.5,29.3
2012-08-01 00:56:00,0.0,1.9091,0.0010,384.11,0.37,9.8,15.7,138.07,31.02,24.65,36.39,0.94,-26.58,17.25,-42,569,-921,23.5,34.9,7.1,23.7,1.7,-30.2,5.73,2.38,-28.5,29.3
2012-08-01 00:57:00,0.0,1.9104,0.0010,384.16,0.37,10.9,17.6,138.07,31.02,24.64,36.39,0.94,-26.58,17.32,-42,569,-922,23.5,34.9,7.1,23.7,1.7,-30.3,5.73,2.34,-28.5,29.3
2012-08-01 00:58:00,0.0,1.9113,0.0011,383.85,0.39,7.6,13.7,138.07,31.02,24.65,36.39,0.91,-26.58,17.37,-42,569,-921,23.5,35.2,7.2,23.7,1.7,-30.3,5.73,2.37,-28.5,29.3
2012-08-01 00:59:00,0.0,1.9112,0.0010,383.88,0.38,7.1,14.1,138.07,31.03,24.65,36.38,0.90,-26.57,17.44,-42,569,-921,23.5,35.2,7.3,23.7,1.7,-30.3,5.73,2.36,-28.4,29.3
2012-08-01 01:00:00,0.0,1.9122,0.0011,383.53,0.39,11.9,19.1,138.07,31.03,24.64,36.38,0.88,-26.58,17.50,-42,569,-921,23.5,35.6,7.4,23.7,1.7,-30.3,5.73,2.35,-28.5,29.3
2012-08-01 01:01:00,0.0,1.9122,0.0014,383.54,0.46,10.7,19.0,138.07,31.03,24.65,36.39,0.89,-26.57,17.55,-42,569,-921,23.5,35.5,7.4,23.8,1.7,-30.3,5.73,2.38,-28.5,29.3
2012-08-01 01:02:00,0.0,1.9124,0.0012,383.47,0.48,11.8,19.0,138.07,31.03,24.64,36.39,0.91,-26.57,17.60,-42,569,-921,23.5,35.5,7.4,23.8,1.7,-30.2,5.73,2.34,-28.5,29.3
2012-08-01 01:03:00,0.0,1.9131,0.0010,383.35,0.49,9.2,15.1,138.07,31.03,24.65,36.39,0.92,-26.57,17.65,-42,569,-921,23.6,35.7,7.5,23.7,1.7,-30.3,5.73,2.38,-28.4,29.4
2012-08-01 01:04:00,0.0,1.9143,0.0011,382.81,0.41,9.1,19.2,138.06,31.04,24.65,36.38,0.93,-26.57,17.71,-42,569,-921,23.5,36.2,7.7,23.8,1.7,-30.2,5.73,2.35,-28.5,29.3
2012-08-01 01:05:00,0.0,1.9143,0.0010,383.14,0.44,10.8,19.3,138.07,31.04,24.64,36.39,0.92,-26.56,17.75,-42,570,-921,23.6,36.0,7.6,23.8,1.7,-30.3,5.73,2.36,-28.4,29.4
2012-08-01 01:06:00,0.0,1.9118,0.0010,383.67,0.41,10.4,16.5,138.07,31.04,24.65,36.39,0.93,-26.57,17.79,-42,569,-922,23.6,35.4,7.4,23.8,1.7,-30.3,5.73,2.37,-28.4,29.4
2012-08-01 01:07:00,0.0,1.9113,0.0011,383.79,0.48,8.4,16.1,138.06,31.05,24.64,36.39,0.94,-26.57,17.84,-42,569,-922,23.5,35.5,7.4,23.8,1.7,-30.2,5.73,2.34,-28.5,29.4
2012-08-01 01:08:00,0.0,1.9095,0.0012,384.10,0.44,7.5,18.5,138.06,31.05,24.65,36.39,0.94,-26.56,17.88,-42,570,-922,23.6,35.4,7.4,23.8,1.7,-30.2,5.73,2.39,-28.5,29.4
2012-08-01 01:09:00,0.0,1.9112,0.0011,383.89,0.42,8.0,13.0,138.06,31.05,24.64,36.39,0.94,-26.56,17.92,-41,569,-922,23.6,35.6,7.4,23.8,1.7,-30.3,5.73,2.34,-28.5,29.4
2012-08-01 01:10:00,0.0,1.9136,0.0017,383.81,0.34,9.7,14.9,138.06,31.06,24.64,36.38,0.94,-26.56,17.95,-42,570,-923,23.6,35.9,7.6,23.8,1.7,-30.2,5.73,2.38,-28.5,29.3
2012-08-01 01:11:00,0.0,1.9115,0.0011,383.81,0.40,9.4,17.3,138.06,31.06,24.64,36.38,0.93,-26.55,17.99,-42,570,-923,23.6,36.1,7.7,23.8,1.7,-30.2,5.73,2.36,-28.4,29.4
2012-08-01 01:12:00,0.0,1.9115,0.0012,383.95,0.40,7.3,14.8,138.06,31.06,24.65,36.39,0.92,-26.55,18.03,-42,570,-923,23.6,36.2,7.7,23.8,1.7,-30.3,5.73,2.35,-28.5,29.4
2012-08-01 01:13:00,0.0,1.9149,0.0010,384.16,0.47,12.5,19.7,138.06,31.06,24.65,36.39,0.88,-26.55,18.06,-42,570,-923,23.6,35.9,7.6,23.8,1.7,-30.3,5.73,2.38,-28.5,29.4
2012-08-01 01:14:00,0.0,1.9162,0.0014,384.31,0.39,6.3,12.1,138.06,31.07,24.65,36.38,0.89,-26.55,18.09,-42,569,-923,23.6,35.6,7.5,23.8,1.7,-30.2,5.73,2.34,-28.4,29.4
2012-08-01 01:15:00,0.0,1.9161,0.0012,384.20,0.40,9.4,20.1,138.06,31.07,24.65,36.39,0.89,-26.55,18.12,-42,570,-922,23.6,35.4,7.4,23.8,1.7,-30.2,5.73,2.38,-28.4,29.4
2012-08-01 01:16:00,0.0,1.9170,0.0013,384.38,0.47,12.4,21.4,138.06,31.07,24.65,36.38,0.90,-26.54,18.15,-42,570,-922,23.6,35.4,7.4,23.8,1.7,-30.2,5.73,2.35,-28.4,29.4
2012-08-01 01:17:00,0.0,1.9164,0.0011,384.35,0.46,8.4,13.8,138.06,31.07,24.64,36.39,0.90,-26.54,18.18,-42,570,-922,23.6,35.3,7.4,23.8,1.7,-30.2,5.73,2.36,-28.4,29.4
2012-08-01 01:18:00,0.0,1.9158,0.0008,384.37,0.39,11.1,18.1,138.06,31.08,24.65,36.39,0.93,-26.54,18.21,-42,570,-922,23.6,35.4,7.4,23.8,1.7,-30.2,5.73,2.37,-28.4,29.4
2012-08-01 01:19:00,0.0,1.9155,0.0014,384.41,0.32,7.0,14.3,138.06,31.08,24.65,36.39,0.92,-26.54,18.23,-42,570,-922,23.6,35.6,7.5,23.8,1.7,-30.2,5.73,2.34,-28.4,29.5
2012-08-01 01:20:00,0.0,1.9162,0.0014,384.41,0.39,14.7,19.9,138.06,31.08,24.65,36.40,0.92,-26.54,18.25,-42,569,-922,23.6,35.7,7.5,23.8,1.7,-30.2,5.73,2.38,-28.4,29.4
2012-08-01 01:21:00,0.0,1.9147,0.0015,384.72,0.37,7.3,14.7,138.06,31.09,24.65,36.39,0.94,-26.53,18.28,-42,570,-922,23.6,35.5,7.5,23.9,1.7,-30.2,5.73,2.33,-28.4,29.4
2012-08-01 01:22:00,0.0,1.9139,0.0012,384.86,0.40,11.1,15.8,138.06,31.09,24.65,36.38,0.94,-26.53,18.30,-42,570,-922,23.6,35.4,7.5,23.9,1.7,-30.2,5.73,2.38,-28.4,29.4
2012-08-01 01:23:00,0.0,1.9156,0.0014,384.73,0.46,12.1,19.2,138.07,31.09,24.65,36.39,0.94,-26.52,18.32,-42,570,-922,23.6,35.5,7.5,23.9,1.7,-30.2,5.73,2.35,-28.4,29.4
2012-08-01 01:24:00,0.0,1.9188,0.0012,384.72,0.39,10.8,18.7,138.07,31.09,24.65,36.39,0.93,-26.53,18.35,-42,570,-922,23.7,35.7,7.6,23.9,1.7,-30.2,5.73,2.35,-28.4,29.4
2012-08-01 01:25:00,0.0,1.9153,0.0013,384.70,0.37,12.5,19.8,138.06,31.09,24.65,36.39,0.92,-26.52,18.36,-42,570,-922,23.7,35.5,7.5,23.9,1.7,-30.2,5.73,2.37,-28.4,29.5
2012-08-01 01:26:00,0.0,1.9146,0.0013,384.70,0.39,9.4,16.1,138.06,31.10,24.64,36.39,0.90,-26.52,18.39,-42,570,-922,23.7,35.5,7.5,23.9,1.7,-30.3,5.73,2.33,-28.4,29.4
2012-08-01 01:27:00,0.0,1.9146,0.0011,384.62,0.35,9.6,16.0,138.06,31.10,24.64,36.39,0.87,-26.51,18.41,-42,570,-921,23.7,35.5,7.5,23.9,1.7,-30.2,5.73,2.38,-28.4,29.4
2012-08-01 01:28:00,0.0,1.9152,0.0011,384.53,0.43,9.1,17.1,138.07,31.10,24.65,36.39,0.89,-26.52,18.42,-42,570,-921,23.7,35.7,7.6,23.9,1.7,-30.2,5.73,2.34,-28.4,29.4
2012-08-01 01:29:00,0.0,1.9159,0.0010,384.42,0.38,9.1,16.0,138.07,31.10,24.64,36.40,0.91,-26.51,18.44,-42,570,-922,23.7,35.7,7.6,23.9,1.7,-30.2,5.73,2.37,-28.4,29.4
2012-08-01 01:30:00,0.0,1.9164,0.0012,384.51,0.42,14.0,20.5,138.07,31.10,24.65,36.39,0.91,-26.51,18.46,-42,570,-921,23.7,35.8,7.6,23.9,1.7,-30.2,5.73,2.36,-28.4,29.4
2012-08-01 01:31:00,0.0,1.9168,0.0015,384.49,0.39,7.9,12.5,138.07,31.10,24.65,36.38,0.91,-26.51,18.48,-42,570,-921,23.7,35.9,7.7,23.9,1.7,-30.2,5.73,2.35,-28.4,29.4
2012-08-01 01:32:00,0.0,1.9187,0.0011,384.51,0.39,14.3,20.1,138.07,31.10,24.64,36.39,0.92,-26.51,18.49,-42,570,-921,23.7,36.1,7.7,23.9,1.7,-30.2,5.73,2.38,-28.4,29.4
2012-08-01 01:33:00,0.0,1.9174,0.0009,384.35,0.45,13.2,20.1,138.07,31.10,24.65,36.39,0.93,-26.51,18.50,-42,570,-921,23.7,36.0,7.7,23.9,1.7,-30.2,5.73,2.33,-28.4,29.4
2012-08-01 01:34:00,0.0,1.9175,0.0011,384.28,0.37,12.5,20.4,138.07,31.10,24.65,36.39,0.99,-26.51,18.42,-42,570,-921,23.7,36.0,7.7,23.9,1.7,-30.2,5.73,2.38,-28.4,29.4
2012-08-01 01:35:00,0.0,1.9186,0.0009,384.31,0.39,12.8,19.5,138.07,31.10,24.65,36.39,1.15,-26.51,17.03,-42,570,-921,23.7,36.1,7.7,23.9,1.7,-30.2,5.73,2.35,-28.4,29.4
2012-08-01 01:36:00,0.0,1.9195,0.0012,384.11,0.41,9.7,19.0,138.07,31.10,24.65,36.40,1.11,-26.50,14.78,-42,570,-921,23.7,35.9,7.7,23.9,1.7,-30.2,5.73,2.35,-28.4,29.4
2012-08-01 01:37:00,0.0,1.9191,0.0013,384.07,0.39,10.9,21.6,138.07,31.10,24.64,36.39,0.93,-26.53,12.40,-42,570,-921,23.7,35.8,7.6,23.9,1.7,-30.2,5.73,2.37,-28.4,29.4
2012-08-01 01:38:00,0.0,1.9197,0.0013,384.07,0.32,13.9,22.1,138.07,31.11,24.65,36.39,1.00,-26.56,10.05,-42,570,-921,23.7,35.7,7.6,23.9,1.7,-30.2,5.73,2.33,-28.4,29.4
2012-08-01 01:39:00,0.0,1.9205,0.0013,384.23,0.32,14.0,20.8,138.07,31.11,24.65,36.39,1.07,-26.58,7.78,-42,570,-922,23.7,35.8,7.6,23.9,1.7,-30.2,5.73,2.38,-28.4,29.4
2012-08-01 01:40:00,0.0,1.9210,0.0012,383.98,0.49,9.7,19.2,138.07,31.11,24.64,36.39,1.07,-26.58,5.60,-42,570,-922,23.7,35.8,7.7,23.9,1.7,-30.2,5.73,2.35,-28.4,29.4
2012-08-01 01:41:00,0.0,1.9229,0.0015,384.10,0.48,12.7,19.6,138.07,31.11,24.65,36.38,0.99,-26.60,3.54,-42,570,-922,23.7,35.8,7.7,23.9,1.7,-30.2,5.73,2.35,-28.4,29.3
2012-08-01 01:42:00,0.0,1.9215,0.0011,383.97,0.38,13.1,21.7,138.07,31.11,24.65,36.39,1.02,-26.61,1.58,-42,570,-922,23.7,35.9,7.7,23.9,1.7,-30.2,5.73,2.38,-28.4,29.4
2012-08-01 01:43:00,0.0,1.9225,0.0013,384.13,0.46,8.0,15.1,138.07,31.11,24.64,36.39,1.07,-26.62,-0.29,-42,570,-922,23.7,36.0,7.7,23.9,1.7,-30.2,5.73,2.34,-28.4,29.4
2012-08-01 01:44:00,0.0,1.9223,0.0015,384.37,0.41,11.9,18.2,138.07,31.11,24.64,36.39,1.04,-26.63,-2.04,-42,570,-922,23.7,36.1,7.8,23.9,1.7,-30.2,5.73,2.36,-28.4,29.4
2012-08-01 01:45:00,0.0,1.9205,0.0009,384.16,0.42,7.9,13.5,138.07,31.11,24.65,36.39,0.97,-26.64,-3.53,-42,570,-922,23.7,36.2,7.8,23.9,1.7,-30.3,5.73,2.37,-28.4,29.3
2012-08-01 01:46:00,0.0,1.9199,0.0011,384.14,0.43,9.4,17.0,138.07,31.11,24.65,36.39,1.02,-26.65,-4.77,-42,570,-923,23.7,36.4,7.9,23.9,1.6,-30.4,5.73,2.34,-28.4,29.4
2012-08-01 01:47:00,0.0,1.9206,0.0010,384.02,0.39,9.5,21.9,138.07,31.11,24.64,36.39,1.08,-26.66,-6.14,-42,570,-922,23.7,36.5,8.0,23.9,1.6,-30.4,5.73,2.37,-28.4,29.4
2012-08-01 01:48:00,0.0,1.9212,0.0010,384.01,0.42,9.9,16.9,138.07,31.11,24.65,36.39,1.03,-26.68,-7.44,-42,571,-922,23.7,36.6,8.0,23.9,1.7,-30.3,5.73,2.36,-28.4,29.4
2012-08-01 01:49:00,0.0,1.9213,0.0010,383.96,0.36,11.0,18.2,138.07,31.11,24.65,36.39,0.97,-26.69,-8.73,-42,571,-923,23.7,36.6,8.0,23.9,1.6,-30.4,5.73,2.34,-28.4,29.3
2012-08-01 01:50:00,0.0,1.9212,0.0012,383.58,0.42,11.9,19.4,138.07,31.11,24.64,36.38,1.01,-26.70,-9.78,-42,571,-923,23.8,36.4,8.0,23.9,1.6,-30.4,5.73,2.37,-28.4,29.3
2012-08-01 01:51:00,0.0,1.9216,0.0010,383.47,0.37,9.6,13.9,138.07,31.12,24.64,36.39,1.06,-26.71,-10.90,-42,571,-923,23.8,36.3,7.9,23.9,1.6,-30.3,5.73,2.34,-28.4,29.3
2012-08-01 01:52:00,0.0,1.9217,0.0010,383.48,0.36,11.2,17.9,138.07,31.12,24.64,36.39,1.05,-26.73,-11.98,-42,571,-923,23.8,36.3,7.9,23.9,1.6,-30.3,5.73,2.33,-28.4,29.3
2012-08-01 01:53:00,0.0,1.9214,0.0010,383.19,0.38,11.6,17.7,138.07,31.12,24.65,36.39,0.96,-26.74,-13.02,-42,571,-923,23.8,36.3,7.9,24.0,1.6,-30.4,5.73,2.37,-28.4,29.3
2012-08-01 01:54:00,0.0,1.9218,0.0010,383.50,0.40,9.4,18.6,138.07,31.11,24.65,36.39,0.97,-26.76,-13.99,-42,571,-923,23.8,36.4,8.0,23.9,1.6,-30.3,5.73,2.34,-28.4,29.3
2012-08-01 01:55:00,0.0,1.9202,0.0010,383.61,0.37,9.9,16.8,138.07,31.11,24.64,36.39,1.03,-26.77,-14.91,-42,571,-923,23.8,36.6,8.0,23.9,1.6,-30.3,5.73,2.34,-28.4,29.3
2012-08-01 01:56:00,0.0,1.9205,0.0008,383.63,0.39,12.8,20.5,138.08,31.11,24.65,36.38,1.06,-26.78,-15.79,-42,571,-923,23.8,36.5,8.0,23.9,1.6,-30.4,5.73,2.38,-28.4,29.3
2012-08-01 01:57:00,0.0,1.9214,0.0012,383.68,0.38,12.8,21.2,138.07,31.11,24.64,36.39,1.00,-26.79,-16.58,-42,571,-923,23.8,36.4,8.0,23.9,1.6,-30.4,5.73,2.35,-28.4,29.3
2012-08-01 01:58:00,0.0,1.9210,0.0010,383.32,0.46,9.7,18.9,138.08,31.11,24.64,36.39,0.96,-26.81,-17.33,-42,571,-923,23.8,36.2,7.9,23.9,1.6,-30.5,5.73,2.34,-28.4,29.4
2012-08-01 01:59:00,0.0,1.9205,0.0012,383.30,0.38,7.5,13.6,138.07,31.11,24.65,36.38,0.98,-26.82,-18.07,-42,571,-923,23.8,36.0,7.8,23.9,1.6,-30.5,5.73,2.38,-28.4,29.4
2012-08-01 02:00:00,0.0,1.9205,0.0008,383.32,0.41,7.5,15.2,138.07,31.10,24.65,36.39,1.03,-26.83,-18.78,-42,571,-923,23.8,36.1,7.8,23.9,1.6,-30.5,5.73,2.35,-28.4,29.4
2012-08-01 02:01:00,0.0,1.9205,0.0011,383.68,0.42,13.2,20.4,138.08,31.10,24.65,36.39,1.05,-26.84,-19.45,-42,571,-923,23.8,36.2,7.9,24.0,1.6,-30.5,5.73,2.34,-28.4,29.4
2012-08-01 02:02:00,0.0,1.9209,0.0011,383.53,0.38,10.0,18.4,138.08,31.10,24.65,36.39,1.03,-26.86,-20.07,-42,571,-923,23.8,36.2,7.9,24.0,1.6,-30.5,5.73,2.37,-28.4,29.4
2012-08-01 02:03:00,0.0,1.9217,0.0011,383.51,0.41,12.2,19.3,138.08,31.10,24.65,36.39,0.96,-26.87,-20.66,-42,571,-922,23.8,36.2,7.9,24.0,1.6,-30.5,5.73,2.36,-28.4,29.4
2012-08-01 02:04:00,0.0,1.9226,0.0009,383.62,0.38,12.4,20.1,138.08,31.10,24.64,36.39,0.98,-26.88,-21.21,-42,571,-922,23.8,36.2,7.9,24.0,1.6,-30.5,5.73,2.34,-28.4,29.4
2012-08-01 02:05:00,0.0,1.9236,0.0013,383.64,0.40,13.7,25.3,138.07,31.10,24.65,36.39,1.02,-26.89,-21.72,-42,571,-922,23.9,36.1,7.9,24.0,1.6,-30.5,5.73,2.37,-28.4,29.3
2012-08-01 02:06:00,0.0,1.9248,0.0014,383.58,0.35,14.8,20.9,138.07,31.10,24.64,36.38,1.05,-26.90,-22.19,-42,571,-922,23.8,35.9,7.8,24.0,1.6,-30.5,5.73,2.36,-28.4,29.4
2012-08-01 02:07:00,0.0,1.9246,0.0011,383.51,0.44,10.8,18.2,138.07,31.10,24.65,36.38,1.03,-26.91,-22.65,-42,571,-922,23.8,35.8,7.8,24.0,1.6,-30.5,5.73,2.34,-28.3,29.4
2012-08-01 02:08:00,0.0,1.9241,0.0010,383.37,0.43,11.9,20.3,138.08,31.10,24.65,36.40,0.97,-26.93,-23.07,-42,571,-922,23.9,36.0,7.9,24.0,1.6,-30.5,5.73,2.37,-28.4,29.4
2012-08-01 02:09:00,0.0,1.9260,0.0016,383.57,0.44,10.6,19.3,138.08,31.09,24.64,36.40,0.96,-26.94,-23.47,-42,571,-922,23.8,36.1,7.9,24.0,1.6,-30.5,5.73,2.36,-28.4,29.3
2012-08-01 02:10:00,0.0,1.9252,0.0010,383.71,0.39,12.6,19.5,138.08,31.09,24.65,36.39,0.98,-26.95,-23.84,-42,571,-922,23.9,36.0,7.9,24.0,1.6,-30.5,5.73,2.33,-28.4,29.3
2012-08-01 02:11:00,0.0,1.9266,0.0010,383.92,0.43,16.7,23.6,138.08,31.09,24.65,36.40,1.03,-26.96,-24.20,-42,571,-922,23.9,36.1,7.9,24.0,1.6,-30.7,5.73,2.37,-28.4,29.3
2012-08-01 02:12:00,0.0,1.9285,0.0015,384.30,0.40,15.6,22.5,138.08,31.09,24.64,36.39,1.05,-26.97,-24.54,-42,571,-922,23.9,36.1,7.9,24.0,1.6,-30.7,5.73,2.36,-28.4,29.3
2012-08-01 02:13:00,0.0,1.9328,0.0011,384.67,0.39,12.9,20.5,138.08,31.09,24.64,36.39,1.00,-26.98,-24.86,-42,571,-921,23.9,36.2,8.0,24.0,1.6,-30.7,5.73,2.33,-28.4,29.3
2012-08-01 02:14:00,0.0,1.9316,0.0012,384.54,0.40,12.0,19.1,138.08,31.09,24.65,36.38,0.97,-26.99,-25.17,-42,571,-921,23.9,36.3,8.0,24.0,1.6,-30.7,5.73,2.36,-28.4,29.3
2012-08-01 02:15:00,0.0,1.9314,0.0010,384.46,0.37,9.6,17.2,138.08,31.09,24.65,36.39,0.97,-27.00,-25.45,-42,571,-921,23.9,36.5,8.1,24.0,1.6,-30.6,5.73,2.36,-28.4,29.3
2012-08-01 02:16:00,0.0,1.9306,0.0012,384.59,0.38,11.5,17.4,138.08,31.09,24.64,36.39,1.00,-27.00,-25.71,-42,571,-921,23.9,36.6,8.1,24.0,1.6,-30.6,5.73,2.33,-28.4,29.3
2012-08-01 02:17:00,0.0,1.9307,0.0009,384.76,0.41,13.8,18.6,138.08,31.09,24.65,36.39,1.02,-27.01,-25.96,-42,571,-921,23.9,36.7,8.1,24.0,1.6,-30.6,5.73,2.36,-28.4,29.3
2012-08-01 02:18:00,0.0,1.9302,0.0009,384.87,0.37,12.8,19.4,138.08,31.09,24.64,36.38,1.03,-27.02,-26.20,-42,571,-920,23.9,36.9,8.2,24.0,1.6,-30.7,5.73,2.36,-28.4,29.3
2012-08-01 02:19:00,0.0,1.9270,0.0012,384.43,0.33,17.0,19.9,138.08,31.09,24.65,36.39,1.01,-27.03,-26.42,-43,571,-920,23.9,36.9,8.2,24.0,1.6,-30.6,5.73,2.33,-28.4,29.3
2012-08-01 02:20:00,0.0,1.9251,0.0012,384.02,0.40,16.2,19.7,138.08,31.09,24.64,36.39,0.95,-27.04,-26.63,-43,571,-919,23.9,36.7,8.2,24.0,1.6,-30.6,5.73,2.36,-28.4,29.3
2012-08-01 02:21:00,0.0,1.9254,0.0012,384.13,0.40,17.5,21.6,138.08,31.09,24.65,36.38,0.97,-27.04,-26.83,-43,571,-919,23.9,36.7,8.2,24.0,1.6,-30.6,5.73,2.34,-28.4,29.3